Location: St. Louis
(38.6270°N, 90.1994°W)
Time: 19:11:03
(UTC-06:00)

X-37B - Pass Details

Date: 06 December 2022
Orbit: 277 x 277 km, 45.0° (Epoch: 01 November)

Event Time Altitude Azimuth Distance (km) Brightness Sun altitude
Rises 17:26:37 0° 215° (SW) 1,899 5.1 -9.2°
Reaches altitude 10° 17:28:46 10° 197° (SSW) 1,092 3.4 -9.6°
Maximum altitude 17:30:42 21° 144° (SE) 693 1.7 -9.9°
Enters shadow 17:32:02 14° 102° (ESE) 903 1.9 -10.2°
